This is the latest recevied weather packets stored in our database for station/object PY3MO-13. If no packets are shown the sender has not sent any weather packets the latest 10 day(s).
| Time | Temp. | Humidity | Pressure | Rain* | Wind** | Luminosity | Snow |
|---|---|---|---|---|---|---|---|
| 1778430455 | 9.44° C | 65% | 1019.5 hPa | 0 mm | - | - | - |
| 1778430155 | 9.44° C | 65% | 1019.8 hPa | 0 mm | - | - | - |
| 1778429854 | 9.44° C | 68% | 1019.8 hPa | 0 mm | - | - | - |
| 1778429554 | 9.44° C | 69% | 1019.9 hPa | 0 mm | - | - | - |
| 1778429254 | 8.89° C | 67% | 1020 hPa | 0 mm | - | - | - |
| 1778428955 | 9.44° C | 66% | 1020.1 hPa | 0 mm | - | - | - |
| 1778428655 | 9.44° C | 65% | 1020 hPa | 0 mm | - | - | - |
| 1778428354 | 10° C | 65% | 1020.1 hPa | 0 mm | - | - | - |
| 1778428054 | 10.56° C | 68% | 1020.2 hPa | 0 mm | - | - | - |
| 1778427756 | 9.44° C | 67% | 1020 hPa | 0 mm | - | - | - |
| 1778427455 | 10° C | 70% | 1020.1 hPa | 0 mm | - | - | - |
| 1778427155 | 9.44° C | 70% | 1020.3 hPa | 0 mm | - | - | - |
| 1778426854 | 8.89° C | 70% | 1020.4 hPa | 0 mm | - | - | - |
| 1778426554 | 8.89° C | 70% | 1020.5 hPa | 0 mm | - | - | - |
| 1778426254 | 8.89° C | 70% | 1020.6 hPa | 0 mm | - | - | - |
| 1778425955 | 8.89° C | 71% | 1020.5 hPa | 0 mm | - | - | - |
| 1778425655 | 8.33° C | 72% | 1020.7 hPa | 0 mm | - | - | - |
| 1778425354 | 8.33° C | 72% | 1020.7 hPa | 0 mm | - | - | - |
| 1778425054 | 8.33° C | 72% | 1020.7 hPa | 0 mm | - | - | - |
| 1778424754 | 8.89° C | 73% | 1020.7 hPa | 0 mm | - | - | - |
| 1778424455 | 8.33° C | 74% | 1020.7 hPa | 0 mm | - | - | - |
| 1778424155 | 7.78° C | 73% | 1021 hPa | 0 mm | - | - | - |
| 1778423855 | 7.78° C | 72% | 1020.9 hPa | 0 mm | - | - | - |
| 1778423554 | 7.78° C | 71% | 1021 hPa | 0 mm | - | - | - |
| 1778423255 | 8.33° C | 71% | 1020.9 hPa | 0 mm | - | - | - |
* Rain latest hour (hover to see other rain measurements)
** Current wind speed in m/s (hover to see current wind gust speed)